Sauk Centre, MN

10:56 AM CST on December 14, 2019 (GMT -0600)
Sauk Centre

Weather History for KD39 - September, 2019

Change the Weather History Date:

Thursday, September 26, 2019

  Actual Average (KGHW) Record (KGHW)
Temperature  
Mean Temperature 51 °F -  
Max Temperature 60 °F 67 °F 89 °F (2008)
Min Temperature 42 °F 41 °F 23 °F (1984)
Degree Days  
Heating Degree Days 14    
Growing Degree Days 1 (Base 50)    
Moisture  
Dew Point 45 °F    
Average Humidity 74    
Maximum Humidity 93    
Minimum Humidity 59    
Precipitation  
Precipitation 0.00 in - - ()
Sea Level Pressure  
Sea Level Pressure 29.79 in    
Wind  
Wind Speed 6 mph ()    
Max Wind Speed 16 mph    
Max Gust Speed 23 mph    
Visibility 9.9 miles    
Events Rain    
Averages and records for this station are not official NWS values.
T = Trace of Precipitation, MM = Missing Value Source: Averaged Metar Reports

Daily Weather History Graph

Daily Weather History Graph

Search for Another Location

Airport or City:

Astronomy

Sep. 26, 2019 Rise Set
Actual Time 7:11 AM CDT 7:09 PM CDT
Civil Twilight 6:41 AM CDT 7:39 PM CDT
Nautical Twilight 6:07 AM CDT 8:14 PM CDT
Astronomical Twilight 5:31 AM CDT 8:49 PM CDT
Moon 4:06 AM CDT (9/26) 6:33 PM CDT (9/26)
Length of Visible Light 12h 57m
Length of Day
11h 58m
Waning Crescent, 6% of the Moon is Illuminated
Sep 26
Waning Crescent
Sep 28
New
Oct 5
First Quarter
Oct 13
Full
Oct 21
Last Quarter

Hourly Weather History & Observations

Time (CDT) Temp. Windchill Dew Point Humidity Pressure Visibility Wind Dir Wind Speed Gust Speed Precip Events Conditions
12:59 AM 48.2 °F - 41.0 °F 76% 29.88 in 10.0 mi West 9.2 mph - N/A   Scattered Clouds
1:59 AM 46.4 °F 42.4 °F 41.0 °F 81% 29.88 in 10.0 mi West 8.1 mph - N/A   Clear
2:59 AM 44.6 °F 41.4 °F 41.0 °F 87% 29.88 in 10.0 mi West 5.8 mph - N/A   Clear
3:59 AM 42.8 °F 41.1 °F 41.0 °F 93% 29.88 in 10.0 mi WSW 3.5 mph - N/A   Clear
4:59 AM 42.8 °F - 41.0 °F 93% 29.88 in 10.0 mi Calm Calm - N/A   Clear
5:59 AM 42.8 °F 39.3 °F 41.0 °F 93% 29.89 in 10.0 mi West 5.8 mph - N/A   Clear
6:59 AM 42.8 °F 41.1 °F 41.0 °F 93% 29.89 in 10.0 mi WSW 3.5 mph - N/A   Clear
7:59 AM 44.6 °F - 42.8 °F 93% 29.89 in 10.0 mi Calm Calm - N/A   Clear
8:59 AM 50.0 °F - 44.6 °F 82% 29.88 in 10.0 mi SSW 4.6 mph - N/A   Clear
9:59 AM 53.6 °F - 46.4 °F 77% 29.89 in 10.0 mi SW 6.9 mph - N/A   Clear
10:59 AM 55.4 °F - 44.6 °F 67% 29.89 in 10.0 mi SW 11.5 mph 16.1 mph N/A   Clear
11:59 AM 57.2 °F - 46.4 °F 67% 29.87 in 10.0 mi SW 12.7 mph 17.3 mph N/A   Clear
12:59 PM 59.0 °F - 46.4 °F 63% 29.85 in 10.0 mi SW 11.5 mph 18.4 mph N/A   Clear
1:59 PM 60.8 °F - 46.4 °F 59% 29.82 in 10.0 mi SW 10.4 mph - N/A   Clear
2:59 PM 60.8 °F - 46.4 °F 59% 29.80 in 10.0 mi SW 9.2 mph - N/A   Clear
3:59 PM 60.8 °F - 46.4 °F 59% 29.76 in 7.0 mi SSW 6.9 mph - N/A   Clear
4:59 PM 59.0 °F - 48.2 °F 67% 29.71 in 10.0 mi SE 5.8 mph - N/A   Mostly Cloudy
5:59 PM 57.2 °F - 46.4 °F 67% 29.68 in 10.0 mi ESE 6.9 mph - N/A   Overcast
6:59 PM 57.2 °F - 48.2 °F 72% 29.65 in 10.0 mi ESE 10.4 mph - N/A Rain Light Rain
7:59 PM 57.2 °F - 48.2 °F 72% 29.65 in 10.0 mi SSE 8.1 mph - N/A   Overcast
8:59 PM 57.2 °F - 46.4 °F 67% 29.62 in 10.0 mi SSE 9.2 mph - N/A   Overcast
9:59 PM 57.2 °F - 44.6 °F 63% 29.61 in 10.0 mi South 9.2 mph - N/A   Overcast
10:59 PM 57.2 °F - 46.4 °F 67% 29.56 in 10.0 mi SSE 12.7 mph - N/A   Mostly Cloudy
11:59 PM 59.0 °F - 46.4 °F 63% 29.53 in 10.0 mi South 16.1 mph 23.0 mph N/A   Mostly Cloudy